Weather in Zaozhuang

China     34°51′51″N   117°33′06″E
temp.,
°C
wind,
m/s
gust,
m/s
humid.,
%
clouds,
%
prec.,
mm/h
press.,
hPa
HPBL,
m
11 april, sun
sun1123:00+12ese51167100 0.0 1026474
02:00+10ese5117799 0.0 1025382
05:00+8e4109485 0.0 1025282
08:00+11ese598114 0.0 1026428
11:00+17se7868100 0.0 10231067
14:00+17se6876100 0.2 1021918
17:00+14se3691100 0.8 1020386
20:00+13e3697100 1.4 1020412
12 april, mon
mon1223:00+12ene3596100 0.1 1020330
02:00+12ne2394100 0.1 1018181
05:00+12nw1193100 0.0 101775
08:00+13wnw2487100 0.0 1017284
11:00+19wnw4463100 0.0 10161176
14:00+21wnw4552100 0.1 10141715
17:00+20n2456100 0.0 1013126
20:00+18ese1157100 0.0 101511
13 april, tue
tue1323:00+17wsw126467 0.0 101713
02:00+14w2271100 0.0 101721
05:00+13n1174100 0.0 101712
08:00+15ene71072100 0.0 1020609
11:00+16ene6760100 0.0 1022915
14:00+17e5554100 0.0 10211090
17:00+15e455679 0.0 1020466
20:00+11ese336751 0.0 102253
14 april, wed
wed1423:00+9ene367771 0.0 1024166
02:00+7e3783100 0.0 1023174
05:00+7e368424 0.0 1023137
08:00+10ese456034 0.0 1023343
11:00+16se334561 0.0 1023877
14:00+19sse3338100 0.0 10201862
17:00+18s4342100 0.0 10181754
20:00+13s4116090 0.0 1019204
15 april, thu
thu1523:00+11sse31062100 0.0 1019227
02:00+10sse41074100 0.0 1018297
05:00+8se2282100 0.0 101738
08:00+12s4760100 0.0 1017358
11:00+18ssw675390 0.0 1016978
14:00+22sw564698 0.0 10131357
17:00+22wsw344994 0.0 10131376
20:00+15sse2278100 1.1 101416